Location: ????????
(55.7667°N, 37.4833°E)
Time: 00:54:17
(UTC+00:00)

Cosmos 2237 - Pass Details

Date: 19 May 2025
Orbit: 848 x 854 km, 70.8° (Epoch: 13 June)

Event Time Altitude Azimuth Distance (km) Brightness Sun altitude
Rises 19:22:40 0° 324° (NW) 3,425 9.6 -9.9°
Reaches altitude 10° 19:25:10 10° 327° (NNW) 2,486 8.3 -10.0°
Maximum altitude 19:30:51 67° 51° (NE) 920 4.5 -10.4°
Enters shadow 19:36:07 12° 133° (SE) 2,324 5.9 -10.7°
